This demonstration page uses our WeatherBlox Daily Observations layout. Learn more.

Left ArrowRight Arrow

34.16533, -84.80231

Hourly Observations for October 28, 2015

Temp ( °F °C ) Dew Point ( °F °C ) Humidity (%) Winds ( mph kmh ) Pressure ( in mb ) Visibility ( mi km ) Precip ( " mm )
12:53 am 00:53 Cloudy 56 13.3 54 12.2 93 93 E 9 15 29.89 1012 10 16 0.00 0.00
1:53 am 01:53 Cloudy 56 13.3 55 12.8 97 97 VRB 7 11 29.87 1011 9 14 0.00 0.00
2:53 am 02:53 Cloudy 56 13.3 55 12.8 97 97 E 9 15 29.85 1011 9 14 0.00 0.03
3:53 am 03:53 Cloudy 57 13.9 55 12.8 93 93 E 7 11 29.83 1010 10 16 0.00 0.00
4:53 am 04:53 Cloudy with Light Rain 57 13.9 56 13.3 96 96 VRB 6 9 29.80 1009 9 14 0.06 1.52
5:53 am 05:53 Cloudy with Light Rain 57 13.9 57 13.9 100 100 E 7 11 29.78 1009 6 10 0.01 0.25
6:41 am 06:41 Cloudy with Light Rain 58 14.4 58 14.4 100 100 SE 6 9 29.80 1009 5 8 0.00 0.03
6:53 am 06:53 Cloudy with Mist and Fog 59 15 58 14.4 96 96 SE 6 9 29.78 1009 6 10 0.01 0.25
7:53 am 07:53 Cloudy 60 15.6 59 15 96 96 SE 6 9 29.78 1008 10 16 0.00 0.03
8:06 am 08:06 Cloudy 60 15.6 59 15 96 96 VRB 5 7 29.80 1009 10 16 0.00 0.00
8:17 am 08:17 Cloudy 60 15.6 60 15.6 100 100 ESE 3 6 29.80 1009 10 16 0.00 0.00
8:29 am 08:29 Cloudy 60 15.6 60 15.6 100 100 ESE 5 7 29.80 1009 10 16 0.00 0.00
8:41 am 08:41 Cloudy 61 16.1 60 15.6 97 97 E 3 6 29.80 1009 10 16 0.00 0.00
8:53 am 08:53 Cloudy with Light Rain 61 16.1 60 15.6 97 97 ESE 5 7 29.78 1009 7 11 0.00 0.03
9:00 am 09:00 Cloudy with Light Rain 61 16.1 61 16.1 100 100 ESE 5 7 29.80 1009 7 11 0.00 0.03
9:07 am 09:07 Cloudy 62 16.7 61 16.1 96 96 ESE 5 7 29.80 1009 10 16 0.00 0.03
9:44 am 09:44 Cloudy 62 16.7 62 16.7 100 100 SE 6 9 29.80 1009 9 14 0.00 0.03
9:53 am 09:53 Cloudy with Light Rain 63 17.2 62 16.7 97 97 SE 8 13 29.79 1009 4 6 0.00 0.03
10:10 am 10:10 Cloudy 64 17.8 63 17.2 96 96 S 5 7 29.80 1009 10 16 0.00 0.03
10:51 am 10:51 Cloudy 64 18 63 17 94 94 S 9 15 29.80 1009 10 16 0.00 0.03
10:53 am 10:53 Cloudy 65 18.3 63 17.2 93 93 S 9 15 29.78 1009 10 16 0.00 0.03
11:53 am 11:53 Cloudy 68 20 65 18.3 90 90 S 7 11 29.78 1008 10 16 0.00 0.00
12:53 pm 12:53 Cloudy 71 21.7 65 18.3 81 81 VRB 3 6 29.77 1008 10 16 0.00 0.00
1:18 pm 13:18 Mostly Cloudy 72 22.2 65 18.3 79 79 VRB 3 6 29.80 1009 10 16 0.00 0.00
1:53 pm 13:53 Mostly Cloudy 75 23.9 65 18.3 71 71 VRB 6 9 29.75 1007 10 16 0.00 0.00
2:53 pm 14:53 Partly Cloudy 77 25 61 16.1 58 58 VRB 6 9 29.72 1007 10 16 0.00 0.00
3:53 pm 15:53 Partly Cloudy 76 24.4 61 16.1 60 60 VRB 5 7 29.74 1007 10 16 0.00 0.00
4:53 pm 16:53 Sunny 74 23.3 59 15 60 60 VRB 5 7 29.75 1007 10 16 0.00 0.00
5:53 pm 17:53 Sunny 72 22.2 57 13.9 59 59 VRB 3 6 29.75 1007 10 16 0.00 0.00
6:53 pm 18:53 Clear 69 20.6 58 14.4 68 68 Calm 29.76 1008 10 16 0.00 0.00
7:53 pm 19:53 Clear 62 16.7 59 15 90 90 Calm 29.78 1008 10 16 0.00 0.00
8:53 pm 20:53 Clear 60 15.6 58 14.4 93 93 Calm 29.79 1009 10 16 0.00 0.00
9:53 pm 21:53 Clear 58 14.4 57 13.9 97 97 Calm 29.80 1009 10 16 0.00 0.00
10:53 pm 22:53 Clear 56 13.3 56 13.3 100 100 Calm 29.82 1010 10 16 0.00 0.00
11:53 pm 23:53 Clear 56 13.3 55 12.8 97 97 Calm 29.83 1010 10 16 0.00 0.00

Powered by AerisWeather